Change the Weather History Date:

Thursday, May 15, 2014

  Actual Average (KEWR) Record (KEWR)
Temperature  
Mean Temperature 66 °F 62 °F  
Max Temperature 73 °F 72 °F 89 °F (1957)
Min Temperature 59 °F 53 °F 40 °F (1939)
Degree Days  
Heating Degree Days 0 4  
Month to date heating degree days 89  
Since 1 July heating degree days 4809  
Cooling Degree Days 1 2  
Month to date cooling degree days 17  
Year to date cooling degree days 29  
Growing Degree Days 16 (Base 50)    
Moisture  
Dew Point 64 °F    
Average Humidity 91    
Maximum Humidity 99    
Minimum Humidity 77    
Precipitation  
Precipitation 0.00 in 0.13 in 0.76 in (1981)
Month to date precipitation 1.86  
Year to date precipitation 16.66  
Snow  
Snow 0.00 in 0.00 in 0.00 in (2002)
Month to date snowfall 0.0  
Since 1 July snowfall 28.5  
Snow Depth -    
Sea Level Pressure  
Sea Level Pressure 30.18 in    
Wind  
Wind Speed 4 mph (SE)    
Max Wind Speed 10 mph    
Max Gust Speed -    
Visibility 6 miles    
Events      
T = Trace of Precipitation, MM = Missing Value Source: NWS Daily Summary

Daily Weather History Graph

Daily Weather History Graph

Search for Another Location

Airport or City:

Trip Planner

Search our weather history database for the weather conditions in past years. The results will help you decide how hot, cold, wet, or windy it might be!

Date:

Astronomy

May. 15, 2014 Rise Set
Actual Time 5:40 AM EDT 8:07 PM EDT
Civil Twilight 5:09 AM EDT 8:38 PM EDT
Nautical Twilight 4:30 AM EDT 9:16 PM EDT
Astronomical Twilight 3:47 AM EDT 9:59 PM EDT
Moon 9:12 PM EDT (5/15) 6:24 AM EDT (5/15)
Length of Visible Light 15h 28m
Length of Day
14h 26m
Full, 99% of the Moon is Illuminated
May 15
Full
May 21
Last Quarter
May 28
New
Jun 5
First Quarter
Jun 13
Full

Hourly Weather History & Observations

Time (EDT) Temp. Dew Point Humidity Pressure Visibility Wind Dir Wind Speed Gust Speed Precip Events Conditions
12:15 AM 59.4 °F 58.3 °F 96% 30.27 in 4.0 mi Calm Calm - N/A   Overcast
12:35 AM 59.7 °F 58.8 °F 97% 30.26 in 3.0 mi Calm Calm - N/A   Overcast
12:55 AM 60.3 °F 59.4 °F 97% 30.25 in 2.0 mi Calm Calm - N/A   Overcast
1:35 AM 61.2 °F 60.4 °F 97% 30.24 in 1.0 mi Calm Calm - N/A   Light Drizzle
1:55 AM 61.7 °F 60.8 °F 97% 30.24 in 4.0 mi SSE 5.8 mph - N/A   Overcast
2:15 AM 61.0 °F 60.3 °F 97% 30.24 in 4.0 mi SE 4.6 mph - N/A   Overcast
2:35 AM 60.8 °F 60.1 °F 97% 30.23 in 4.0 mi SE 3.5 mph - N/A   Overcast
2:55 AM 61.2 °F 60.4 °F 97% 30.23 in 4.0 mi ESE 4.6 mph - N/A   Overcast
3:15 AM 60.8 °F 60.1 °F 97% 30.23 in 1.8 mi ESE 4.6 mph - N/A   Overcast
3:35 AM 61.0 °F 60.3 °F 97% 30.22 in 1.2 mi ESE 5.8 mph - N/A   Overcast
3:55 AM 61.3 °F 60.8 °F 98% 30.20 in 1.5 mi ESE 5.8 mph - N/A   Overcast
4:15 AM 61.3 °F 60.8 °F 98% 30.20 in 1.5 mi ESE 3.5 mph - N/A   Overcast
4:35 AM 61.7 °F 60.8 °F 97% 30.20 in 3.0 mi Calm Calm - N/A   Overcast
4:55 AM 61.3 °F 60.8 °F 98% 30.21 in 2.0 mi SSE 3.5 mph - N/A   Overcast
5:15 AM 60.8 °F 59.9 °F 97% 30.20 in 0.8 mi SE 3.5 mph - N/A   Overcast
5:35 AM 60.8 °F 60.1 °F 97% 30.20 in 0.8 mi Calm Calm - N/A   Overcast
5:55 AM 61.2 °F 60.8 °F 99% 30.21 in 1.0 mi SE 3.5 mph - N/A   Overcast
6:15 AM 61.7 °F 61.0 °F 97% 30.21 in 1.2 mi Calm Calm - N/A   Overcast
6:35 AM 62.1 °F 61.7 °F 99% 30.21 in 1.2 mi ESE 3.5 mph - N/A   Overcast
6:55 AM 62.6 °F 62.1 °F 98% 30.21 in 1.2 mi ESE 4.6 mph - N/A   Overcast
7:15 AM 63.0 °F 62.4 °F 98% 30.21 in 1.0 mi East 5.8 mph - N/A   Overcast
7:35 AM 63.5 °F 63.0 °F 98% 30.21 in 1.0 mi ESE 4.6 mph - N/A   Overcast
7:55 AM 64.4 °F 63.5 °F 97% 30.20 in 1.2 mi ESE 4.6 mph - N/A   Overcast
8:15 AM 64.8 °F 64.4 °F 99% 30.20 in 1.5 mi SE 3.5 mph - N/A   Overcast
8:35 AM 65.5 °F 64.8 °F 98% 30.21 in 1.5 mi SSE 4.6 mph - N/A   Overcast
8:55 AM 65.3 °F 64.6 °F 98% 30.20 in 1.0 mi SE 5.8 mph - N/A   Overcast
9:15 AM 65.3 °F 64.6 °F 98% 30.20 in 1.5 mi SE 5.8 mph - N/A   Overcast
9:35 AM 65.7 °F 64.8 °F 97% 30.21 in 3.0 mi SSE 5.8 mph - N/A   Overcast
9:55 AM 65.7 °F 64.6 °F 96% 30.21 in 4.0 mi SSE 4.6 mph - N/A   Overcast
10:15 AM 65.8 °F 64.8 °F 96% 30.21 in 4.0 mi SE 4.6 mph - N/A   Overcast
10:35 AM 67.5 °F 66.0 °F 95% 30.20 in 5.0 mi SSE 4.6 mph - N/A   Overcast
10:55 AM 68.2 °F 66.4 °F 94% 30.20 in 7.0 mi SSE 4.6 mph - N/A   Overcast
11:15 AM 69.8 °F 66.9 °F 91% 30.20 in 7.0 mi SE 5.8 mph - N/A   Overcast
11:35 AM 70.2 °F 66.7 °F 89% 30.20 in 10.0 mi SSE 4.6 mph - N/A   Overcast
11:55 AM 71.8 °F 66.7 °F 84% 30.20 in 10.0 mi SE 4.6 mph - N/A   Overcast
12:15 PM 71.8 °F 66.2 °F 83% 30.20 in 10.0 mi SE 5.8 mph - N/A   Overcast
12:35 PM 72.3 °F 66.2 °F 81% 30.19 in 10.0 mi SE 5.8 mph - N/A   Overcast
12:55 PM 72.0 °F 65.7 °F 80% 30.18 in 10.0 mi SE 5.8 mph - N/A   Overcast
1:15 PM 73.2 °F 66.0 °F 78% 30.18 in 10.0 mi SE 9.2 mph - N/A   Overcast
1:35 PM 72.0 °F 65.5 °F 80% 30.17 in 10.0 mi SSE 8.1 mph - N/A   Overcast
2:15 PM 69.8 °F 64.4 °F 83% 30.17 in 10.0 mi SE 8.1 mph - N/A   Overcast
2:55 PM 70.7 °F 66.0 °F 85% 30.16 in 10.0 mi SSE 10.4 mph - N/A   Overcast
3:15 PM 71.8 °F 65.5 °F 80% 30.15 in 10.0 mi SSE 9.2 mph - N/A   Overcast
3:35 PM 71.8 °F 65.5 °F 80% 30.14 in 10.0 mi SSE 10.4 mph - N/A   Overcast
3:55 PM 72.7 °F 65.1 °F 77% 30.14 in 10.0 mi SE 10.4 mph - N/A   Overcast
4:15 PM 71.6 °F 64.8 °F 79% 30.14 in 10.0 mi SE 9.2 mph - N/A   Overcast
4:35 PM 70.7 °F 64.4 °F 80% 30.14 in 10.0 mi SE 10.4 mph - N/A   Overcast
4:55 PM 70.3 °F 64.0 °F 80% 30.14 in 10.0 mi SE 6.9 mph - N/A   Overcast
5:15 PM 70.0 °F 64.2 °F 82% 30.14 in 10.0 mi SE 6.9 mph - N/A   Overcast
5:35 PM 70.0 °F 64.4 °F 82% 30.14 in 10.0 mi SE 8.1 mph - N/A   Overcast
5:55 PM 70.3 °F 64.4 °F 81% 30.13 in 10.0 mi SE 9.2 mph - N/A   Overcast
6:15 PM 70.7 °F 65.1 °F 82% 30.13 in 10.0 mi SE 9.2 mph - N/A   Overcast
6:35 PM 69.8 °F 64.6 °F 83% 30.13 in 10.0 mi SE 8.1 mph - N/A   Overcast
7:15 PM 69.4 °F 64.9 °F 86% 30.12 in 10.0 mi SSE 6.9 mph - N/A   Overcast
7:35 PM 69.1 °F 64.6 °F 86% 30.13 in 10.0 mi SE 6.9 mph - N/A   Overcast
7:55 PM 67.3 °F 63.5 °F 88% 30.13 in 10.0 mi SE 6.9 mph - N/A   Overcast
8:15 PM 66.7 °F 63.5 °F 89% 30.12 in 10.0 mi SE 5.8 mph - N/A   Overcast
8:35 PM 67.8 °F 64.4 °F 89% 30.12 in 10.0 mi SSE 6.9 mph - N/A   Overcast
8:55 PM 67.6 °F 64.4 °F 89% 30.13 in 5.0 mi SE 6.9 mph - N/A   Overcast
9:15 PM 68.2 °F 65.1 °F 90% 30.13 in 7.0 mi SE 6.9 mph - N/A   Overcast
9:35 PM 68.0 °F 64.8 °F 89% 30.13 in 10.0 mi SE 8.1 mph - N/A   Overcast
9:55 PM 68.4 °F 65.3 °F 90% 30.12 in 10.0 mi SSE 6.9 mph - N/A   Overcast
10:15 PM 68.5 °F 65.3 °F 89% 30.12 in 10.0 mi SSE 6.9 mph - N/A   Overcast
10:35 PM 68.2 °F 65.3 °F 90% 30.12 in 10.0 mi SSE 5.8 mph - N/A   Overcast
10:55 PM 68.2 °F 65.3 °F 90% 30.12 in 10.0 mi SSE 5.8 mph - N/A   Overcast
11:15 PM 68.0 °F 64.8 °F 89% 30.10 in 10.0 mi SE 5.8 mph - N/A   Overcast
11:35 PM 66.7 °F 64.4 °F 92% 30.10 in 10.0 mi SE 8.1 mph - N/A   Overcast
11:55 PM 66.0 °F 63.5 °F 92% 30.10 in 7.0 mi SE 9.2 mph - N/A   Overcast